DW6232 Weather Reports


time (UTC)temp
C
wind
direction
speed
KPH
gust
KPH
rain 1hr
cm
rain 24hr
cm
rain mn
cm
humidity
%
barometer
mb
20260505153053 17 348 9.7 16.1 0.00 0.00 0.00 51 1010.1
20260505151545 17 338 6.4 11.3 0.00 0.00 0.00 56 1010.2
20260505124559 12 329 3.2 6.4 0.00 0.00 0.00 66 1008.8
20260505123113 13 54 4.8 8.0 0.00 0.00 0.00 66 1008.7
20260505121555 12 49 1.6 4.8 0.00 0.00 0.00 68 1008.5
20260505120055 12 63 6.4 8.0 0.00 0.00 0.00 68 1008.5
20260505114611 13 82 4.8 8.0 0.00 0.00 0.00 66 1008.4
20260505113052 13 5 6.4 11.3 0.00 0.00 0.00 68 1008.2
20260505111602 13 22 3.2 6.4 0.00 0.00 0.00 70 1008.1
20260505101543 12 329 3.2 6.4 0.00 0.00 0.00 74 1007.5
20260505100039 12 181 0.0 4.8 0.00 0.00 0.00 74 1007.3
20260505094539 12 327 4.8 8.0 0.00 0.00 0.00 73 1007.1
20260505093038 12 32 1.6 3.2 0.00 0.00 0.00 73 1007.0
20260505091537 12 57 1.6 8.0 0.00 0.00 0.00 75 1006.9
20260505090038 12 101 0.0 3.2 0.00 0.00 0.00 73 1006.8
20260505084531 12 101 1.6 4.8 0.00 0.00 0.00 72 1006.8
20260505083032 13 101 0.0 4.8 0.00 0.00 0.00 70 1006.8
20260505081531 13 97 3.2 8.0 0.00 0.00 0.00 68 1006.6
20260505080032 13 97 0.0 4.8 0.00 0.00 0.00 66 1006.5
20260505074519 14 97 0.0 4.8 0.00 0.00 0.00 66 1006.4
20260505073020 15 59 4.8 6.4 0.00 0.00 0.00 64 1006.3
20260505071514 14 71 4.8 6.4 0.00 0.00 0.00 65 1006.3
20260505070012 15 26 3.2 6.4 0.00 0.00 0.00 65 1006.1
20260505064511 15 161 4.8 8.0 0.00 0.00 0.00 66 1005.9
20260505063011 15 67 4.8 12.9 0.00 0.00 0.00 64 1005.7
20260505061520 15 160 1.6 6.4 0.00 0.00 0.00 63 1005.6
20260505060013 16 102 1.6 3.2 0.00 0.00 0.00 62 1005.4
20260505054510 16 55 3.2 4.8 0.00 0.00 0.00 61 1005.3
20260505053010 16 75 3.2 8.0 0.00 0.00 0.00 59 1005.2
20260505051509 17 69 3.2 4.8 0.00 0.00 0.00 59 1005.1
20260505041506 18 65 1.6 8.0 0.00 0.00 0.00 54 1004.6
20260505040011 19 55 3.2 6.4 0.00 0.00 0.00 51 1004.4
20260505034505 20 60 3.2 6.4 0.00 0.00 0.00 49 1004.1
20260505033005 20 20 3.2 6.4 0.00 0.00 0.00 47 1003.9
20260505031504 21 73 1.6 4.8 0.00 0.00 0.00 46 1003.6
20260505030004 21 59 3.2 6.4 0.00 0.00 0.00 46 1003.3
20260505024510 23 74 3.2 6.4 0.00 0.00 0.00 44 1003.0
20260505023003 26 38 0.0 3.2 0.00 0.00 0.00 37 1002.9
20260505021539 27 318 1.6 3.2 0.00 0.00 0.00 32 1002.8
20260505020100 28 318 1.6 6.4 0.00 0.00 0.00 33 1002.8
20260505014622 28 17 1.6 6.4 0.00 0.00 0.00 29 1002.8
20260505013018 28 300 1.6 4.8 0.00 0.00 0.00 29 1002.9
20260505011607 29 317 3.2 9.7 0.00 0.00 0.00 30 1003.0
20260505010131 29 329 3.2 16.1 0.00 0.00 0.00 24 1003.2
20260505004517 29 39 8.0 17.7 0.00 0.00 0.00 25 1003.4
20260505003056 29 59 3.2 14.5 0.00 0.00 0.00 26 1003.5
20260505001625 29 86 3.2 14.5 0.00 0.00 0.00 27 1003.6
20260505000005 30 340 8.0 14.5 0.00 0.00 0.00 26 1003.7
20260504234549 30 304 4.8 11.3 0.00 0.00 0.00 27 1003.8
20260504233117 29 275 1.6 8.0 0.00 0.00 0.00 27 1003.8
20260504231632 29 348 6.4 12.9 0.00 0.00 0.00 27 1003.9
20260504230039 28 254 8.0 16.1 0.00 0.00 0.00 29 1004.0
20260504224550 28 286 6.4 14.5 0.00 0.00 0.00 28 1004.2
20260504223049 29 236 6.4 16.1 0.00 0.00 0.00 27 1004.4
20260504221619 28 275 8.0 12.9 0.00 0.00 0.00 28 1004.4
20260504220119 28 279 3.2 17.7 0.00 0.00 0.00 26 1004.5
20260504214537 28 328 4.8 12.9 0.00 0.00 0.00 25 1004.7
20260504213055 28 328 4.8 17.7 0.00 0.00 0.00 25 1004.8
20260504211559 29 274 4.8 11.3 0.00 0.00 0.00 27 1004.9
20260504210009 29 213 6.4 11.3 0.00 0.00 0.00 28 1005.1
20260504204531 28 206 6.4 16.1 0.00 0.00 0.00 29 1005.2
20260504203058 28 175 11.3 17.7 0.00 0.00 0.00 29 1005.3
20260504201637 28 211 12.9 19.3 0.00 0.00 0.00 32 1005.3
20260504200025 28 229 9.7 16.1 0.00 0.00 0.00 30 1005.5
20260504194615 27 168 11.3 17.7 0.00 0.00 0.00 32 1005.6
20260504193014 27 167 8.0 14.5 0.00 0.00 0.00 34 1005.7
20260504191517 26 173 8.0 19.3 0.00 0.00 0.00 36 1006.0
20260504190131 26 225 8.0 12.9 0.00 0.00 0.00 36 1006.0
20260504184513 25 203 4.8 9.7 0.00 0.00 0.00 42 1006.2
20260504183043 23 231 3.2 9.7 0.00 0.00 0.00 47 1006.4
20260504181604 22 268 4.8 8.0 0.00 0.00 0.00 51 1006.4
20260504180014 21 305 3.2 8.0 0.00 0.00 0.00 50 1006.5
20260504174535 21 286 1.6 8.0 0.00 0.00 0.00 51 1006.6
20260504173106 20 287 3.2 6.4 0.00 0.00 0.00 53 1006.6
20260504171606 20 270 3.2 6.4 0.00 0.00 0.00 53 1006.8
20260504160111 15 240 0.0 3.2 0.00 0.00 0.00 69 1007.2